| time (UTC) | temp F | wind direction | speed MPH | gust MPH | rain 1hr in | rain 24hr in | rain mn in | humidity % | barometer mb |
| 20260510075138 | 45 | 292 | 0.0 | 0.0 | 0.00 | 0.00 | 0.00 | 95 | 1020.3 |
| 20260510074039 | 45 | 292 | 0.0 | 0.0 | 0.00 | 0.00 | 0.00 | 95 | 1020.4 |
| 20260510073039 | 45 | 292 | 0.0 | 0.0 | 0.00 | 0.00 | 0.00 | 95 | 1020.4 |
| 20260510072939 | 45 | 292 | 0.0 | 0.0 | 0.00 | 0.00 | 0.00 | 94 | 1020.4 |
| 20260510071938 | 45 | 292 | 0.0 | 0.0 | 0.00 | 0.00 | 0.00 | 94 | 1020.6 |
| 20260510070938 | 45 | 292 | 0.0 | 0.0 | 0.00 | 0.00 | 0.00 | 93 | 1020.4 |
| 20260510070022 | 45 | 292 | 0.0 | 0.0 | 0.00 | 0.00 | 0.00 | 95 | 1020.5 |
| 20260510064021 | 45 | 292 | 0.0 | 0.0 | 0.00 | 0.00 | 0.00 | 93 | 1020.6 |
| 20260510063022 | 46 | 292 | 0.0 | 0.0 | 0.00 | 0.00 | 0.00 | 93 | 1020.5 |
| 20260510062121 | 46 | 292 | 0.0 | 0.0 | 0.00 | 0.00 | 0.00 | 94 | 1020.4 |
| 20260510061120 | 46 | 292 | 0.0 | 0.0 | 0.00 | 0.00 | 0.00 | 93 | 1020.4 |
| 20260510060121 | 47 | 292 | 0.0 | 0.0 | 0.00 | 0.00 | 0.00 | 93 | 1020.6 |
| 20260510055122 | 47 | 292 | 0.0 | 0.0 | 0.00 | 0.00 | 0.00 | 93 | 1020.7 |
| 20260510054122 | 47 | 292 | 0.0 | 0.0 | 0.00 | 0.00 | 0.00 | 90 | 1020.7 |
| 20260510053121 | 47 | 292 | 0.0 | 0.0 | 0.00 | 0.00 | 0.00 | 90 | 1020.7 |
| 20260510053021 | 47 | 292 | 0.0 | 0.0 | 0.00 | 0.00 | 0.00 | 91 | 1020.7 |
| 20260510052038 | 48 | 292 | 0.0 | 0.0 | 0.00 | 0.00 | 0.00 | 89 | 1020.9 |
| 20260510051021 | 48 | 292 | 0.0 | 0.0 | 0.00 | 0.00 | 0.00 | 87 | 1020.8 |
| 20260510050021 | 48 | 292 | 0.0 | 0.0 | 0.00 | 0.00 | 0.00 | 89 | 1020.9 |
| 20260510045020 | 49 | 292 | 0.0 | 0.0 | 0.00 | 0.00 | 0.00 | 88 | 1020.8 |
| 20260510043021 | 50 | 292 | 0.0 | 0.0 | 0.00 | 0.00 | 0.00 | 87 | 1020.8 |
| 20260510042922 | 50 | 292 | 0.0 | 0.0 | 0.00 | 0.00 | 0.00 | 87 | 1020.6 |
| 20260510041922 | 51 | 292 | 0.0 | 0.0 | 0.00 | 0.00 | 0.00 | 86 | 1020.6 |
| 20260510040922 | 51 | 292 | 0.0 | 0.0 | 0.00 | 0.00 | 0.00 | 86 | 1020.4 |
| 20260510034921 | 53 | 292 | 0.0 | 0.0 | 0.00 | 0.00 | 0.00 | 85 | 1020.2 |
| 20260510034822 | 53 | 292 | 0.0 | 0.0 | 0.00 | 0.00 | 0.00 | 85 | 1020.3 |
| 20260510033822 | 54 | 292 | 0.0 | 0.0 | 0.00 | 0.00 | 0.00 | 85 | 1020.3 |
| 20260510032921 | 55 | 292 | 0.0 | 0.0 | 0.00 | 0.00 | 0.00 | 85 | 1020.1 |
| 20260510031922 | 55 | 292 | 0.0 | 0.0 | 0.00 | 0.00 | 0.00 | 85 | 1020.0 |
| 20260510030921 | 56 | 292 | 0.0 | 0.0 | 0.00 | 0.00 | 0.00 | 83 | 1019.9 |
| 20260510025921 | 57 | 292 | 0.0 | 0.0 | 0.00 | 0.00 | 0.00 | 82 | 1019.9 |
| 20260510025821 | 57 | 292 | 0.0 | 0.0 | 0.00 | 0.00 | 0.00 | 81 | 1019.8 |
| 20260510023920 | 59 | 292 | 0.0 | 0.0 | 0.00 | 0.00 | 0.00 | 80 | 1019.6 |
| 20260510022922 | 59 | 292 | 0.0 | 0.0 | 0.00 | 0.00 | 0.00 | 78 | 1019.6 |
| 20260510022021 | 61 | 292 | 0.0 | 0.0 | 0.00 | 0.00 | 0.00 | 75 | 1019.6 |
| 20260510021021 | 62 | 292 | 0.0 | 0.0 | 0.00 | 0.00 | 0.00 | 72 | 1019.5 |
| 20260510020023 | 64 | 292 | 0.0 | 0.0 | 0.00 | 0.00 | 0.00 | 69 | 1019.5 |
| 20260510015119 | 65 | 292 | 0.0 | 0.0 | 0.00 | 0.00 | 0.00 | 65 | 1019.3 |
| 20260510014121 | 68 | 292 | 0.0 | 1.0 | 0.00 | 0.00 | 0.00 | 58 | 1019.5 |
| 20260510012121 | 71 | 15 | 0.0 | 3.0 | 0.00 | 0.00 | 0.00 | 51 | 1019.0 |
| 20260510011221 | 72 | 310 | 0.0 | 2.0 | 0.00 | 0.00 | 0.00 | 50 | 1018.9 |
| 20260510011121 | 72 | 135 | 0.0 | 2.0 | 0.00 | 0.00 | 0.00 | 50 | 1018.9 |
| 20260510010122 | 74 | 323 | 1.0 | 3.0 | 0.00 | 0.00 | 0.00 | 50 | 1019.0 |
| 20260510005221 | 72 | 360 | 0.0 | 0.0 | 0.00 | 0.00 | 0.00 | 51 | 1019.0 |
| 20260510004222 | 73 | 164 | 0.0 | 1.0 | 0.00 | 0.00 | 0.00 | 50 | 1018.8 |
| 20260510003221 | 74 | 85 | 0.0 | 2.0 | 0.00 | 0.00 | 0.00 | 49 | 1018.9 |
| 20260510002320 | 73 | 114 | 1.0 | 2.0 | 0.00 | 0.00 | 0.00 | 50 | 1018.9 |
| 20260510001320 | 72 | 110 | 2.0 | 4.0 | 0.00 | 0.00 | 0.00 | 51 | 1018.8 |
| 20260510001220 | 72 | 90 | 0.0 | 3.0 | 0.00 | 0.00 | 0.00 | 51 | 1018.8 |
| 20260510000221 | 73 | 127 | 2.0 | 4.0 | 0.00 | 0.00 | 0.00 | 50 | 1018.9 |
| 20260509235221 | 74 | 62 | 1.0 | 4.0 | 0.00 | 0.00 | 0.00 | 48 | 1018.8 |
| 20260509233221 | 74 | 163 | 2.0 | 4.0 | 0.00 | 0.00 | 0.00 | 50 | 1018.9 |
| 20260509231220 | 74 | 161 | 1.0 | 4.0 | 0.00 | 0.00 | 0.00 | 48 | 1018.8 |
| 20260509230220 | 76 | 39 | 1.0 | 4.0 | 0.00 | 0.00 | 0.00 | 47 | 1018.7 |
| 20260509225119 | 74 | 46 | 1.0 | 3.0 | 0.00 | 0.00 | 0.00 | 49 | 1018.9 |
| 20260509223120 | 74 | 70 | 3.0 | 6.0 | 0.00 | 0.00 | 0.00 | 51 | 1019.2 |
| 20260509222119 | 73 | 79 | 3.0 | 5.0 | 0.00 | 0.00 | 0.00 | 50 | 1019.2 |
| 20260509222021 | 73 | 116 | 1.0 | 3.0 | 0.00 | 0.00 | 0.00 | 50 | 1019.2 |
| 20260509221022 | 74 | 134 | 1.0 | 5.0 | 0.00 | 0.00 | 0.00 | 50 | 1019.3 |
| 20260509220021 | 73 | 103 | 2.0 | 5.0 | 0.00 | 0.00 | 0.00 | 47 | 1019.3 |
| 20260509215119 | 74 | 360 | 0.0 | 3.0 | 0.00 | 0.00 | 0.00 | 48 | 1019.5 |
| 20260509214119 | 74 | 74 | 0.0 | 1.0 | 0.00 | 0.00 | 0.00 | 49 | 1019.5 |
| 20260509213120 | 74 | 61 | 2.0 | 5.0 | 0.00 | 0.00 | 0.00 | 48 | 1019.6 |
| 20260509211121 | 73 | 113 | 1.0 | 3.0 | 0.00 | 0.00 | 0.00 | 48 | 1019.5 |
| 20260509210120 | 73 | 74 | 1.0 | 3.0 | 0.00 | 0.00 | 0.00 | 48 | 1019.6 |
| 20260509210021 | 73 | 92 | 2.0 | 4.0 | 0.00 | 0.00 | 0.00 | 48 | 1019.6 |
| 20260509205021 | 72 | 352 | 2.0 | 5.0 | 0.00 | 0.00 | 0.00 | 47 | 1019.6 |
| 20260509204021 | 72 | 25 | 2.0 | 5.0 | 0.00 | 0.00 | 0.00 | 44 | 1019.6 |
| 20260509203922 | 72 | 52 | 3.0 | 5.0 | 0.00 | 0.00 | 0.00 | 45 | 1019.6 |
| 20260509202921 | 72 | 63 | 0.0 | 3.0 | 0.00 | 0.00 | 0.00 | 45 | 1019.6 |
| 20260509201021 | 72 | 175 | 0.0 | 1.0 | 0.00 | 0.00 | 0.00 | 44 | 1019.8 |
| 20260509195119 | 72 | 14 | 0.0 | 3.0 | 0.00 | 0.00 | 0.00 | 45 | 1019.9 |
| 20260509194121 | 71 | 138 | 2.0 | 6.0 | 0.00 | 0.00 | 0.00 | 47 | 1020.0 |
| 20260509194022 | 71 | 128 | 1.0 | 4.0 | 0.00 | 0.00 | 0.00 | 48 | 1020.0 |
| 20260509193020 | 70 | 34 | 1.0 | 5.0 | 0.00 | 0.00 | 0.00 | 47 | 1020.0 |
| 20260509192019 | 70 | 132 | 3.0 | 6.0 | 0.00 | 0.00 | 0.00 | 46 | 1020.0 |
| 20260509191922 | 70 | 36 | 3.0 | 6.0 | 0.00 | 0.00 | 0.00 | 46 | 1020.0 |
| 20260509190922 | 70 | 204 | 1.0 | 4.0 | 0.00 | 0.00 | 0.00 | 47 | 1020.1 |
| 20260509185019 | 70 | 167 | 1.0 | 7.0 | 0.00 | 0.00 | 0.00 | 46 | 1020.2 |
| 20260509184019 | 70 | 134 | 1.0 | 4.0 | 0.00 | 0.00 | 0.00 | 47 | 1020.1 |
| 20260509182020 | 70 | 114 | 2.0 | 5.0 | 0.00 | 0.00 | 0.00 | 44 | 1020.2 |
| 20260509181119 | 70 | 14 | 4.0 | 7.0 | 0.00 | 0.00 | 0.00 | 44 | 1020.1 |
| 20260509180121 | 71 | 123 | 1.0 | 4.0 | 0.00 | 0.00 | 0.00 | 43 | 1020.1 |
| 20260509175220 | 71 | 360 | 0.0 | 1.0 | 0.00 | 0.00 | 0.00 | 44 | 1020.1 |
| 20260509174221 | 70 | 243 | 1.0 | 9.0 | 0.00 | 0.00 | 0.00 | 45 | 1020.1 |
| 20260509173319 | 70 | 155 | 0.0 | 1.0 | 0.00 | 0.00 | 0.00 | 43 | 1020.1 |
| 20260509171419 | 70 | 90 | 1.0 | 4.0 | 0.00 | 0.00 | 0.00 | 42 | 1020.1 |
| 20260509165421 | 70 | 37 | 1.0 | 5.0 | 0.00 | 0.00 | 0.00 | 43 | 1019.9 |
| 20260509164420 | 69 | 6 | 0.0 | 3.0 | 0.00 | 0.00 | 0.00 | 43 | 1020.0 |
| 20260509163422 | 68 | 123 | 1.0 | 4.0 | 0.00 | 0.00 | 0.00 | 43 | 1020.0 |
| 20260509162420 | 68 | 90 | 1.0 | 3.0 | 0.00 | 0.00 | 0.00 | 42 | 1020.1 |
| 20260509160419 | 65 | 90 | 0.0 | 0.0 | 0.00 | 0.00 | 0.00 | 57 | 1020.2 |
| 20260509155420 | 66 | 270 | 0.0 | 0.0 | 0.00 | 0.00 | 0.00 | 70 | 1020.3 |
| 20260509154421 | 61 | 270 | 0.0 | 0.0 | 0.00 | 0.00 | 0.00 | 78 | 1020.4 |
| 20260509153519 | 59 | 270 | 0.0 | 0.0 | 0.00 | 0.00 | 0.00 | 76 | 1020.7 |
| 20260509153421 | 59 | 270 | 0.0 | 0.0 | 0.00 | 0.00 | 0.00 | 76 | 1020.7 |
| 20260509152420 | 57 | 270 | 0.0 | 0.0 | 0.00 | 0.00 | 0.00 | 82 | 1020.7 |
| 20260509151421 | 55 | 270 | 0.0 | 0.0 | 0.00 | 0.00 | 0.00 | 87 | 1020.8 |
| 20260509151319 | 55 | 270 | 0.0 | 0.0 | 0.00 | 0.00 | 0.00 | 88 | 1020.8 |
| 20260509150319 | 52 | 270 | 0.0 | 0.0 | 0.00 | 0.00 | 0.00 | 90 | 1020.8 |
| 20260509145320 | 50 | 270 | 0.0 | 0.0 | 0.00 | 0.00 | 0.00 | 95 | 1020.9 |
| 20260509143321 | 44 | 270 | 0.0 | 0.0 | 0.00 | 0.00 | 0.00 | 99 | 1020.4 |
| 20260509142420 | 43 | 270 | 0.0 | 0.0 | 0.00 | 0.00 | 0.00 | 99 | 1020.5 |
| 20260509141519 | 43 | 270 | 0.0 | 0.0 | 0.00 | 0.00 | 0.00 | 98 | 1020.4 |
| 20260509141420 | 43 | 270 | 0.0 | 0.0 | 0.00 | 0.00 | 0.00 | 98 | 1020.2 |
| 20260509140420 | 42 | 270 | 0.0 | 0.0 | 0.00 | 0.00 | 0.00 | 98 | 1020.1 |
| 20260509135419 | 39 | 270 | 0.0 | 0.0 | 0.00 | 0.00 | 0.00 | 97 | 1020.1 |
| 20260509134420 | 39 | 270 | 0.0 | 0.0 | 0.00 | 0.00 | 0.00 | 98 | 1020.2 |
| 20260509134320 | 39 | 270 | 0.0 | 0.0 | 0.00 | 0.00 | 0.00 | 97 | 1020.0 |
| 20260509133420 | 39 | 270 | 0.0 | 0.0 | 0.00 | 0.00 | 0.00 | 97 | 1020.1 |
| 20260509133319 | 39 | 270 | 0.0 | 0.0 | 0.00 | 0.00 | 0.00 | 97 | 1020.0 |
| 20260509133220 | 39 | 270 | 0.0 | 0.0 | 0.00 | 0.00 | 0.00 | 98 | 1020.0 |
| 20260509132219 | 39 | 270 | 0.0 | 0.0 | 0.00 | 0.00 | 0.00 | 97 | 1020.0 |
| 20260509131221 | 39 | 270 | 0.0 | 0.0 | 0.00 | 0.00 | 0.00 | 97 | 1019.9 |
| 20260509130318 | 39 | 270 | 0.0 | 0.0 | 0.00 | 0.00 | 0.00 | 98 | 1020.1 |
| 20260509125318 | 39 | 270 | 0.0 | 0.0 | 0.00 | 0.00 | 0.00 | 98 | 1020.1 |
| 20260509124418 | 39 | 270 | 0.0 | 0.0 | 0.00 | 0.00 | 0.00 | 98 | 1020.0 |
| 20260509123420 | 39 | 270 | 0.0 | 0.0 | 0.00 | 0.00 | 0.00 | 98 | 1020.0 |
| 20260509123320 | 39 | 270 | 0.0 | 0.0 | 0.00 | 0.00 | 0.00 | 98 | 1020.0 |
| 20260509122319 | 39 | 270 | 0.0 | 0.0 | 0.00 | 0.00 | 0.00 | 98 | 1019.9 |
| 20260509121320 | 40 | 270 | 0.0 | 0.0 | 0.00 | 0.00 | 0.00 | 97 | 1020.0 |
| 20260509120320 | 39 | 270 | 0.0 | 0.0 | 0.00 | 0.00 | 0.00 | 98 | 1019.9 |
| 20260509120221 | 39 | 270 | 0.0 | 0.0 | 0.00 | 0.00 | 0.00 | 97 | 1020.0 |
| 20260509115219 | 40 | 270 | 0.0 | 0.0 | 0.00 | 0.00 | 0.00 | 97 | 1019.8 |
| 20260509115121 | 40 | 270 | 0.0 | 0.0 | 0.00 | 0.00 | 0.00 | 97 | 1020.0 |
| 20260509114219 | 40 | 270 | 0.0 | 0.0 | 0.00 | 0.00 | 0.00 | 97 | 1019.9 |
| 20260509113220 | 40 | 270 | 0.0 | 0.0 | 0.00 | 0.00 | 0.00 | 97 | 1020.2 |
| 20260509112319 | 40 | 270 | 0.0 | 0.0 | 0.00 | 0.00 | 0.00 | 97 | 1020.1 |
| 20260509112220 | 40 | 270 | 0.0 | 0.0 | 0.00 | 0.00 | 0.00 | 97 | 1020.1 |
| 20260509112121 | 40 | 270 | 0.0 | 0.0 | 0.00 | 0.00 | 0.00 | 96 | 1020.2 |
| 20260509111219 | 40 | 270 | 0.0 | 0.0 | 0.00 | 0.00 | 0.00 | 97 | 1020.2 |
| 20260509110219 | 40 | 270 | 0.0 | 0.0 | 0.00 | 0.00 | 0.00 | 96 | 1020.2 |
| 20260509104220 | 40 | 270 | 0.0 | 0.0 | 0.00 | 0.00 | 0.00 | 98 | 1020.3 |
| 20260509103318 | 41 | 270 | 0.0 | 0.0 | 0.00 | 0.00 | 0.00 | 97 | 1020.4 |
| 20260509102320 | 41 | 270 | 0.0 | 0.0 | 0.00 | 0.00 | 0.00 | 97 | 1020.2 |
| 20260509101318 | 41 | 270 | 0.0 | 0.0 | 0.00 | 0.00 | 0.00 | 97 | 1020.3 |
| 20260509101219 | 41 | 270 | 0.0 | 0.0 | 0.00 | 0.00 | 0.00 | 96 | 1020.3 |
| 20260509100318 | 41 | 270 | 0.0 | 0.0 | 0.00 | 0.00 | 0.00 | 96 | 1020.3 |
| 20260509095320 | 41 | 270 | 0.0 | 0.0 | 0.00 | 0.00 | 0.00 | 96 | 1020.4 |
| 20260509095219 | 41 | 270 | 0.0 | 0.0 | 0.00 | 0.00 | 0.00 | 97 | 1020.5 |
| 20260509094221 | 41 | 270 | 0.0 | 0.0 | 0.00 | 0.00 | 0.00 | 96 | 1020.6 |
| 20260509093220 | 42 | 270 | 0.0 | 0.0 | 0.00 | 0.00 | 0.00 | 96 | 1020.6 |
| 20260509092222 | 41 | 270 | 0.0 | 0.0 | 0.00 | 0.00 | 0.00 | 96 | 1020.6 |
| 20260509092119 | 41 | 270 | 0.0 | 0.0 | 0.00 | 0.00 | 0.00 | 97 | 1020.8 |
| 20260509091120 | 42 | 270 | 0.0 | 0.0 | 0.00 | 0.00 | 0.00 | 97 | 1020.7 |
| 20260509090120 | 42 | 270 | 0.0 | 0.0 | 0.00 | 0.00 | 0.00 | 96 | 1020.6 |
| 20260509090021 | 42 | 270 | 0.0 | 0.0 | 0.00 | 0.00 | 0.00 | 97 | 1020.8 |
| 20260509084019 | 42 | 270 | 0.0 | 0.0 | 0.00 | 0.00 | 0.00 | 95 | 1020.7 |
| 20260509082019 | 42 | 270 | 0.0 | 0.0 | 0.00 | 0.00 | 0.00 | 96 | 1020.8 |
| 20260509081018 | 43 | 270 | 0.0 | 0.0 | 0.00 | 0.00 | 0.00 | 96 | 1021.0 |
| 20260509080019 | 43 | 270 | 0.0 | 0.0 | 0.00 | 0.00 | 0.00 | 96 | 1021.0 |